Regional Weather Roundup
Issued by NWS Newport/Morehead, NC

Current Version | Previous Version | Text Only | Print | Product List | Glossary Off
Versions: 1 2 3 4 5 6 7 8 9 10 11 12 13 14 15 16 17 18 19 20 21 22 23 24 25 26 27 28 29 30 31 32 33 34 35 36 37 38 39 40 41 42 43 44 45 46 47 48 49 50

000
ASUS42 KMHX 281825
RWRMHX
WEATHER ROUNDUP FOR EASTERN NORTH CAROLINA
NATIONAL WEATHER SERVICE NEWPORT/MOREHEAD CITY NC
200 PM EDT WED JUN 28 2017

NOTE: "FAIR" INDICATES FEW OR NO CLOUDS BELOW 12,000 FEET
WITH NO SIGNIFICANT WEATHER AND/OR OBSTRUCTIONS TO VISIBILITY

NCZ015>017-031-032-045>047-102-103-281900-
NORTH COAST

CITY           SKY/WX    TMP DP  RH WIND       PRES   REMARKS
EDENTON        MOSUNNY   80  62  53 CALM      30.19F
ELIZABETH CITY SUNNY     79  59  50 E8        30.19S
KITTY HAWK     CLEAR     75  60  59 NE6       30.19S
MANTEO         SUNNY     75  62  63 NE8       30.20S

$$

NCZ045>047-081-094-103-104-281900-
CENTRAL COAST

CITY           SKY/WX    TMP DP  RH WIND       PRES   REMARKS
FRISCO         NOT AVBL

$$

NCZ095-097-098-100-101-281900-
SOUTHERN COAST

CITY           SKY/WX    TMP DP  RH WIND       PRES   REMARKS
BEAUFORT       SUNNY     84  54  35 NE9       30.18S
CEDAR ISLAND   NOT AVBL
JACKSONVILLE   NOT AVBL
PINEY ISLAND   CLEAR    N/A N/A N/A NE7       30.18F
WILMINGTON     SUNNY     84  51  31 NE8       30.18F


$$

NCZ011>013-027>030-043-044-078>080-089-090>093-098-281900-
COASTAL PLAIN

CITY           SKY/WX    TMP DP  RH WIND       PRES   REMARKS
AHOSKIE          N/A     79  52  39 N7        30.20S
CLINTON        SUNNY     83  53  34 N5        30.19F
ELIZABETHTOWN  NOT AVBL
GOLDSBORO      SUNNY     83  50  32 SE7       30.18S
GREENVILLE     SUNNY     82  52  34 N3        30.20F
HAVELOCK       MOSUNNY   84  56  38 MISG      30.19F
KENANSVILLE    SUNNY     82  50  32 N5        30.19F
KINSTON        MOSUNNY   82  48  30 CALM      30.20S
NEW BERN       SUNNY     82  55  39 VRB5G17   30.19F
RICHLANDS      SUNNY     83  54  36 NE9       30.19F
ROCKY MOUNT    SUNNY     82  55  39 VRB3      30.20F
WASHINGTON     SUNNY    N/A N/A N/A CALM      30.18F
WHITEVILLE     SUNNY     83  54  37 E5        30.18F

$$

AMZ130-135-150-152-154-156-158-170-250-252-270-ANZ085-086-088-633-658-670-281900-
MARINE OBSERVATIONS

STATION/POSITION TIME  TEMP    WIND        PRES    WAVE   SWELL
                       AIR SEA DIR/SP/G            HT/PER HT/PER
                 (UTC) (F)     (DEG/KT/KT) (MB)    (FT/S) (FT/S)
CHESAPEAKE LIGHT NOT AVBL
64 E VA BEACH    1750   71 74   30/  8/ 10 1022.9    3/ 5   2/ 5
DUCK             1800   72 75   40/  9/ 10 1022.4
2 E DUCK         NOT AVBL
OREGON INLET     1800   74 75   40/  9/ 11 1022.3
13E OREGON INLT  1748      75                N/A     3/ 4   2/ 4
HATTERAS CG      1800   77 78   20/ 10/ 12 1022.0
DIAMOND BUOY     1750   77 81   30/  8/ 10 1021.9    2/ 6   2/ 6
CAPE LOOKOUT     1800   78      60/ 12/ 13 1021.6
BEAUFORT LAB     1800   81 78   10/  9/ 10 1021.2
30 SE NEW RVR IN 1808   78 81   40/  8/ 10 1022.0
30 SE NEW RVR IN 1743      81                N/A     2/ 8
27 SE WRIGHTSVLE 1808   78 80   40/ 10/ 14 1021.8
5 SE WRIGHTSVLE  1808   78 79  100/  8/ 12 1021.8
225 S CAPE HAT   1750   80 81   60/ 12/ 14 1019.5    3/ 7   2/ 7
41 SE CHARLESTON 1810   80 80   60/ 16/ 17 1020.5

$$




USA.gov is the U.S. government's official web portal to all federal, state and local government web resources and services.